Location: Hains Lake
(37.8540°N, 99.8578°W)
Time: 08:45:27
(UTC+00:00)

Vanguard 1 - Pass Details

Date: 03 December 2021
Orbit: 652 x 3830 km, 34.2° (Epoch: 24 January)

Event Time Altitude Azimuth Distance (km) Brightness Sun altitude
Rises 04:21:12 0° 208° (SSW) 6,525 14.3 -58.4°
Reaches altitude 10° 04:25:31 10° 201° (SSW) 5,881 13.9 -59.2°
Enters shadow 04:27:48 15° 196° (SSW) 5,586 13.8 -59.6°
